Regional Weather Roundup
Issued by NWS

Home | Current Version | Previous Version | Text Only | Print | Product List | Glossary Off
Versions: 1 2 3 4 5 6 7 8 9 10 11 12 13 14 15 16 17 18 19 20 21 22 23 24 25 26 27 28 29 30 31 32 33 34 35 36 37 38 39 40 41 42 43 44 45 46 47 48 49 50

000
ASUS43 KOAX 312210
RWRNE

WEATHER ROUNDUP FOR NEBRASKA
NATIONAL WEATHER SERVICE OMAHA NE
500 PM CDT FRI JUL 31 2015

NOTES: SATELLITE DATA IS BEING USED TO AUGMENT CLOUD COVER ABOVE
       12000 FEET.
       "FAIR" INDICATES FEW OR NO CLOUDS BELOW 12,000 FEET WITH NO
       SIGNIFICANT WEATHER AND/OR OBSTRUCTIONS TO VISIBILITY.

  * THESE STATIONS DO NOT REPORT WEATHER SUCH AS RAIN...SNOW OR FOG.

NEZ001>004-019>022-054>056-312300-
NEBRASKA PANHANDLE

CITY           SKY/WX    TMP DP  RH WIND       PRES   REMARKS
SCOTTSBLUFF    MOSUNNY   89  51  27 SW20G26   30.17F
ALLIANCE       MOSUNNY   81  62  52 E14       30.18F
CHADRON        MOSUNNY   94  52  24 VRB5      30.11F HX  91
KIMBALL        PTSUNNY   79  49  35 NW18G25   30.23F
SIDNEY         MOSUNNY   91  45  20 SE13      30.20F
$$

NEZ057>060-069>072-079>082-312300-
SOUTHWEST NEBRASKA

CITY           SKY/WX    TMP DP  RH WIND       PRES   REMARKS
NORTH PLATTE   MOSUNNY   92  56  29 S5        30.12F HX  90
IMPERIAL       SUNNY     94  47  20 NE7       30.14F HX  90
LEXINGTON      SUNNY     93  61  33 SW7       30.10F HX  93
MCCOOK         SUNNY     95  56  26 S7        30.10F HX  93
OGALLALA       SUNNY     89  58  34 SE6       30.15F
$$

NEZ005>010-023>029-035>040-094-312300-
NORTH CENTRAL NEBRASKA

CITY           SKY/WX    TMP DP  RH WIND       PRES   REMARKS
VALENTINE      SUNNY     95  42  16 N8        30.10F HX  91
AINSWORTH      MOSUNNY   91  58  33 S8        30.11F
BROKEN BOW     MOSUNNY   93  61  34 W10       30.10F HX  93
O`NEILL        SUNNY     91  60  35 NE3       30.09F HX  90
ORD            TSTM      76  63  64 E5        30.06
THEDFORD       PTSUNNY   92  57  31 SW5       30.14S HX  90
$$

NEZ041-046>049-061>064-073>077-083>087-312300-
SOUTH CENTRAL NEBRASKA

CITY           SKY/WX    TMP DP  RH WIND       PRES   REMARKS
GRAND ISLAND   PTSUNNY   76  63  64 E13       30.11R
AURORA         MOSUNNY   76  67  72 N8        30.09S
HASTINGS       SUNNY     91  65  41 S7        30.08F HX  93
HEBRON         SUNNY     91  62  38 S5        30.08F HX  91
HOLDREGE       SUNNY     91  58  31 S7        30.10F HX  90
KEARNEY *      SUNNY     90  68  48 S15       30.09F HX  93
YORK           MOSUNNY   75  66  73 N16G29    30.12R
$$

NEZ011>018-030>034-042>045-312300-
NORTHEAST NEBRASKA

CITY           SKY/WX    TMP DP  RH WIND       PRES   REMARKS
NORFOLK        MOSUNNY   83  66  56 S14       30.07F
ALBION         PTSUNNY   68  63  83 SE10      30.11R
BLAIR          PTSUNNY   84  74  73 CALM      30.05F HX  91
COLUMBUS *     CLOUDY    77  66  69 NW6       30.09R
FREMONT        CLOUDY    87  72  60 CALM      30.07S HX  93
TEKAMAH        MOSUNNY   89  75  63 CALM      30.04F HX  99
WAYNE          MOSUNNY   87  71  60 E6        30.07F HX  92
$$

NEZ050>053-065>068-078-088>093-312300-
SOUTHEAST NEBRASKA

CITY           SKY/WX    TMP DP  RH WIND       PRES   REMARKS
LINCOLN        MOSUNNY   90  69  50 W7        30.05F HX  94
OMAHA EPPLEY   PTSUNNY   87  75  67 NW5       30.03F HX  96
BEATRICE       SUNNY     89  69  51 SW6       30.07F HX  94
FALLS CITY     MOSUNNY   89  74  60 E3        30.06F HX  98
NEBRASKA CITY  MOSUNNY   87  67  51 SW6       30.06F HX  90
PLATTSMOUTH    PTSUNNY   84  74  72 CALM      30.05F HX  91
$$

NEZ044-045-051>053-067-312300-
OMAHA AREA

CITY           SKY/WX    TMP DP  RH WIND       PRES   REMARKS
OMAHA EPPLEY   PTSUNNY   87  75  67 NW5       30.03F HX  96
BLAIR          PTSUNNY   84  74  73 CALM      30.05F HX  91
FREMONT        CLOUDY    87  72  60 CALM      30.07S HX  93
MILLARD        CLOUDY    86  76  71 CALM      30.03F HX  95
OFFUTT AFB     CLOUDY    86  73  64 SW2       30.03F HX  94
PLATTSMOUTH    PTSUNNY   84  74  72 CALM      30.05F HX  91
WAHOO          FAIR      84  76  76 CALM      30.05F HX  93
$$


USA.gov is the U.S. government's official web portal to all federal, state and local government web resources and services.